Regional Weather Roundup
Issued by NWS Sioux Falls, SD

Home | Current Version | Previous Version | Text Only | Print | Product List | Glossary Off
Versions: 1 2 3 4 5 6 7 8 9 10 11 12 13 14 15 16 17 18 19 20 21 22 23 24 25 26 27 28 29 30 31 32 33 34 35 36 37 38 39 40 41 42 43 44 45 46 47 48 49 50

000
ASUS43 KFSD 241410
RWRFSD

WEATHER ROUNDUP FOR SE SOUTH DAKOTA/SW MINNESOTA/NW IOWA
NATIONAL WEATHER SERVICE SIOUX FALLS SD
800 AM CST SAT FEB 24 2018

NOTE: "FAIR" INDICATES FEW OR NO CLOUDS BELOW 12,000 FEET WITH NO
SIGNIFICANT WEATHER AND OR OBSTRUCTIONS TO VISIBILITY.


SDZ038>040-050-052>070-241500-
SOUTHEAST SOUTH DAKOTA

CITY           SKY/WX    TMP DP  RH WIND       PRES   REMARKS
BROOKINGS      CLOUDY     9   7  92 S3        30.03R
CHAMBERLAIN    LGT SNOW  13  12  94 NE3       29.95F VSB 3/4
HURON          CLOUDY     5   3  91 SE5       30.03S FOG     WCI  -4
MADISON        CLOUDY    10  10 100 CALM      30.01R
MITCHELL       FOG        8   5  87 CALM      30.03F VSB 1/4
SIOUX FALLS    CLOUDY    16  13  88 SE3       30.03S FOG
WINNER         SNOW      18  14  84 SE9       29.89F VSB 1/2 WCI   7
$$

MNZ071-072-080-081-089-090-097-098-241500-
SOUTHWEST MINNESOTA

CITY           SKY/WX    TMP DP  RH WIND       PRES   REMARKS
FAIRMONT       LGT SNOW   9   6  88 NE8       30.05F FOG     WCI  -3
JACKSON        CLOUDY    12   9  85 E3        30.01F
LUVERNE        CLOUDY    16  12  86 CALM      30.03R
MARSHALL       CLOUDY     8   5  87 CALM      30.06F
MONTEVIDEO     CLOUDY    -4  -8  84 CALM      30.08F
PIPESTONE      CLOUDY    16  12  86 CALM      30.00R
REDWOOD FALLS  CLOUDY     2  -1  88 E3        30.07F
TRACY          LGT SNOW  11   9  92 CALM      30.03F
WORTHINGTON    CLOUDY    11   9  92 E3        30.01S FOG
$$

IAZ001>003-012>014-020>022-031-032-NEZ013-014-SDZ071-241500-
NORTHWEST IOWA

CITY           SKY/WX    TMP DP  RH WIND       PRES   REMARKS
CHEROKEE       CLOUDY    18  18 100 E7        30.01R WCI   8
DENISON        CLOUDY    21  19  93 E8        30.00S WCI  12
ESTHERVILLE    CLOUDY    13  11  92 E8        30.02S FOG     WCI   2
LE MARS        FLURRIES  18  16  93 NE5       30.02S WCI  11
ORANGE CITY    CLOUDY    16  16 100 CALM      30.00S FOG
SHELDON        CLOUDY    14  14 100 SE8       30.00R FOG     WCI   3
SIOUX CITY     LGT SNOW  20  18  92 E8        30.01F FOG     WCI  10
SPENCER        CLOUDY    20  14  77 E9        30.00F WCI   9
STORM LAKE     CLOUDY    18  16  93 E22       29.97F FOG     WCI   0
$$

ABBREVIATIONS USED IN REMARKS
   TC - TEMPERATURE IN CELSIUS
  WCI - WIND CHILL INDEX
   HX - HEAT INDEX
  VSB - VISIBILITY





USA.gov is the U.S. government's official web portal to all federal, state and local government web resources and services.